DO7GH Weather Reports


time (UTC)temp
C
wind
direction
speed
KPH
gust
KPH
rain 1hr
cm
rain 24hr
cm
rain mn
cm
humidity
%
barometer
mb
20260505224004 11 178 1.6 6.4 0.05 0.08 0.00 88 1009.6
20260505223505 11 263 0.0 8.0 0.08 0.08 0.00 88 1009.6
20260505223011 11 258 1.6 8.0 0.08 0.08 0.00 88 1009.7
20260505222503 11 241 0.0 9.7 0.08 0.08 0.00 88 1009.8
20260505222004 11 301 1.6 14.5 0.08 0.08 0.00 88 1009.9
20260505221516 11 200 0.0 14.5 0.05 0.08 0.00 88 1010.0
20260505221006 11 298 3.2 8.0 0.05 0.08 0.00 88 1010.2
20260505220505 11 271 1.6 12.9 0.05 0.08 0.00 88 1010.2
20260505220024 11 271 3.2 12.9 0.08 0.08 0.00 88 1010.1
20260505215508 11 246 0.0 9.7 0.08 0.08 0.08 88 1010.2
20260505215003 11 271 1.6 9.7 0.08 0.08 0.08 87 1010.1
20260505214512 12 280 3.2 14.5 0.08 0.08 0.08 86 1010.1
20260505214004 12 256 3.2 14.5 0.03 0.03 0.03 85 1010.1
20260505213504 12 288 1.6 9.7 0.00 0.00 0.00 84 1010.1
20260505213016 12 266 3.2 9.7 0.00 0.00 0.00 84 1010.1
20260505212504 12 280 1.6 8.0 0.00 0.00 0.00 84 1010.0
20260505212004 12 281 1.6 4.8 0.00 0.00 0.00 84 1009.9
20260505211516 12 276 0.0 3.2 0.00 0.00 0.00 84 1009.9
20260505211007 12 303 0.0 6.4 0.00 0.00 0.00 83 1009.9
20260505210508 12 268 0.0 11.3 0.00 0.00 0.00 81 1009.8
20260505210026 13 268 3.2 8.0 0.00 0.00 0.00 77 1009.8
20260505205511 13 333 1.6 11.3 0.00 0.00 0.00 75 1009.8
20260505205011 13 243 1.6 11.3 0.00 0.00 0.00 74 1009.5
20260505204527 13 319 1.6 9.7 0.00 0.00 0.00 73 1009.5
20260505204003 14 256 3.2 12.9 0.00 0.00 0.00 72 1009.3
20260505203503 14 232 3.2 12.9 0.00 0.00 0.00 71 1009.2
20260505203019 14 285 1.6 8.0 0.00 0.00 0.00 72 1009.1
20260505202504 13 317 1.6 11.3 0.00 0.00 0.00 73 1009.0
20260505202009 13 274 1.6 11.3 0.00 0.00 0.00 74 1009.0
20260505201531 13 235 0.0 3.2 0.00 0.00 0.00 74 1008.9
20260505201009 13 252 0.0 1.6 0.00 0.00 0.00 75 1008.6
20260505200505 13 242 0.0 3.2 0.00 0.00 0.00 74 1008.4
20260505200025 13 250 0.0 3.2 0.00 0.00 0.00 74 1008.3
20260505195506 13 257 0.0 3.2 0.00 0.00 0.00 74 1008.2
20260505195010 13 275 0.0 3.2 0.00 0.00 0.00 73 1008.0
20260505194528 14 256 0.0 3.2 0.00 0.00 0.00 73 1007.9
20260505194010 14 262 0.0 3.2 0.00 0.00 0.00 73 1007.8
20260505193506 14 269 0.0 3.2 0.00 0.00 0.00 73 1007.7
20260505193015 14 274 0.0 3.2 0.00 0.00 0.00 73 1007.7
20260505192504 14 252 0.0 3.2 0.00 0.00 0.00 73 1007.6
20260505192007 14 284 0.0 3.2 0.00 0.00 0.00 73 1007.5
20260505191520 15 321 0.0 3.2 0.00 0.00 0.00 73 1007.3
20260505191007 15 15 0.0 8.0 0.00 0.00 0.00 72 1007.3
20260505190510 15 318 0.0 8.0 0.00 0.00 0.00 72 1007.4
20260505190025 15 330 0.0 4.8 0.00 0.00 0.00 73 1007.4
20260505185512 15 238 0.0 4.8 0.00 0.00 0.00 74 1007.5
20260505185010 15 269 0.0 4.8 0.00 0.00 0.00 76 1007.5
20260505184527 14 316 0.0 4.8 0.00 0.00 0.00 76 1007.5
20260505184011 15 269 0.0 4.8 0.00 0.00 0.00 76 1007.4
20260505183504 14 323 0.0 3.2 0.00 0.00 0.00 76 1007.3
20260505183023 14 328 0.0 3.2 0.00 0.00 0.00 76 1007.1
20260505182507 15 336 0.0 3.2 0.00 0.00 0.00 75 1007.0
20260505182007 15 336 0.0 1.6 0.00 0.00 0.00 75 1007.0
20260505181515 15 313 0.0 3.2 0.00 0.00 0.00 74 1006.9
20260505181004 15 352 0.0 1.6 0.00 0.00 0.00 74 1006.6
20260505180503 15 333 0.0 3.2 0.00 0.00 0.00 73 1006.6
20260505180022 15 336 0.0 4.8 0.00 0.00 0.00 72 1006.4
20260505175508 15 340 0.0 4.8 0.00 0.00 0.00 71 1006.4
20260505175008 15 329 0.0 3.2 0.00 0.00 0.00 71 1006.3
20260505174529 16 325 0.0 3.2 0.00 0.00 0.00 71 1006.3
20260505174010 16 330 0.0 11.3 0.00 0.00 0.00 71 1006.4
20260505173504 16 336 0.0 11.3 0.00 0.00 0.00 70 1006.3
20260505173019 16 339 0.0 6.4 0.00 0.00 0.00 70 1006.3
20260505172508 16 346 0.0 4.8 0.00 0.00 0.00 70 1006.2
20260505172012 15 315 1.6 4.8 0.00 0.00 0.00 70 1006.2
20260505171521 16 341 0.0 4.8 0.00 0.00 0.00 70 1006.2
20260505171008 16 323 0.0 3.2 0.00 0.00 0.00 70 1006.2
20260505170508 16 337 0.0 6.4 0.00 0.00 0.00 71 1006.2
20260505170021 16 38 0.0 6.4 0.00 0.00 0.00 71 1006.2
20260505165507 16 9 0.0 6.4 0.00 0.00 0.00 71 1006.3
20260505165008 16 14 0.0 6.4 0.00 0.00 0.00 70 1006.3
20260505164522 16 319 1.6 11.3 0.00 0.00 0.00 68 1006.3
20260505164005 16 337 0.0 11.3 0.00 0.00 0.00 68 1006.3
20260505163505 16 285 3.2 9.7 0.00 0.00 0.00 67 1006.1
20260505163023 17 308 0.0 6.4 0.00 0.00 0.00 68 1006.2
20260505162506 16 345 0.0 6.4 0.00 0.00 0.00 69 1006.2
20260505162002 16 298 0.0 8.0 0.00 0.00 0.00 70 1006.3
20260505161506 16 322 1.6 8.0 0.00 0.00 0.00 69 1006.4
20260505161008 16 333 1.6 9.7 0.00 0.00 0.00 68 1006.5
20260505160504 16 332 3.2 9.7 0.00 0.00 0.00 67 1006.3
20260505153003 16 324 1.6 6.4 0.00 0.00 0.00 69 1006.9
20260505152504 16 322 1.6 6.4 0.00 0.00 0.00 69 1006.9
20260505152005 16 343 0.0 3.2 0.00 0.00 0.00 68 1007.0
20260505151506 16 332 0.0 4.8 0.00 0.00 0.00 70 1007.1
20260505151004 16 284 0.0 4.8 0.00 0.00 0.00 70 1007.2
20260505150504 16 273 0.0 4.8 0.00 0.00 0.00 68 1007.1
20260505140505 18 352 9.7 22.5 0.00 0.00 0.00 50 1006.5
20260505125002 22 122 1.6 6.4 0.00 0.00 0.00 37 1006.3
20260505124513 23 352 0.0 4.8 0.00 0.00 0.00 34 1006.3
20260505124007 23 302 0.0 4.8 0.00 0.00 0.00 34 1006.2
20260505123507 22 272 0.0 6.4 0.00 0.00 0.00 34 1006.3
20260505123008 22 181 1.6 6.4 0.00 0.00 0.00 34 1006.3
20260505122503 23 244 3.2 8.0 0.00 0.00 0.00 33 1006.4
20260505122004 23 211 1.6 8.0 0.00 0.00 0.00 34 1006.4
20260505121515 23 101 3.2 9.7 0.00 0.00 0.00 34 1006.4
20260505121004 23 111 1.6 11.3 0.00 0.00 0.00 35 1006.5
20260505120508 23 157 3.2 11.3 0.00 0.00 0.00 34 1006.5
20260505120006 23 94 1.6 6.4 0.00 0.00 0.00 34 1006.5
20260505115504 23 26 3.2 8.0 0.00 0.00 0.00 35 1006.6
20260505115004 23 57 1.6 9.7 0.00 0.00 0.00 36 1006.6
20260505114509 23 120 3.2 9.7 0.00 0.00 0.00 39 1006.7
20260505114004 23 148 4.8 9.7 0.00 0.00 0.00 35 1006.7
20260505113505 24 98 0.0 4.8 0.00 0.00 0.00 37 1006.7
20260505113015 23 126 0.0 3.2 0.00 0.00 0.00 39 1006.7
20260505112503 23 103 1.6 3.2 0.00 0.00 0.00 37 1006.8
20260505112005 23 19 0.0 8.0 0.00 0.00 0.00 37 1006.9
20260505111514 23 57 0.0 8.0 0.00 0.00 0.00 37 1006.9
20260505111004 22 78 1.6 6.4 0.00 0.00 0.00 39 1007.0
20260505110507 22 138 3.2 6.4 0.00 0.00 0.00 40 1007.0
20260505102006 21 201 1.6 4.8 0.00 0.00 0.00 43 1007.5
20260505101518 21 71 0.0 3.2 0.00 0.00 0.00 47 1007.6
20260505101008 21 144 1.6 3.2 0.00 0.00 0.00 43 1007.6
20260505100507 22 115 0.0 4.8 0.00 0.00 0.00 42 1007.7
20260505100022 21 214 0.0 4.8 0.00 0.00 0.00 42 1007.7
20260505095507 21 169 1.6 4.8 0.00 0.00 0.00 45 1007.8
20260505095007 21 123 1.6 4.8 0.00 0.00 0.00 49 1007.9
20260505094527 21 245 1.6 4.8 0.00 0.00 0.00 43 1007.9
20260505094003 21 329 0.0 3.2 0.00 0.00 0.00 43 1008.0
20260505093503 21 247 0.0 4.8 0.00 0.00 0.00 44 1008.0
20260505093025 20 94 0.0 4.8 0.00 0.00 0.00 44 1008.1
20260505092504 20 123 1.6 4.8 0.00 0.00 0.00 46 1008.3
20260505092004 21 256 0.0 3.2 0.00 0.00 0.00 47 1008.5
20260505091518 20 326 0.0 4.8 0.00 0.00 0.00 48 1008.4
20260505091007 21 295 0.0 4.8 0.00 0.00 0.00 50 1008.6
20260505090506 21 343 0.0 3.2 0.00 0.00 0.00 50 1008.6
20260505090004 20 260 0.0 3.2 0.00 0.00 0.00 50 1008.6
20260505085503 20 294 0.0 3.2 0.00 0.00 0.00 51 1008.7
20260505085003 19 114 0.0 3.2 0.00 0.00 0.00 52 1008.7
20260505084507 20 59 0.0 4.8 0.00 0.00 0.00 53 1008.7
20260505084004 20 307 1.6 4.8 0.00 0.00 0.00 54 1008.7
20260505083502 18 272 0.0 3.2 0.00 0.00 0.00 52 1008.7
20260505083009 20 260 0.0 3.2 0.00 0.00 0.00 53 1008.8
20260505082503 18 126 0.0 3.2 0.00 0.00 0.00 56 1008.8
20260505082003 18 309 0.0 3.2 0.00 0.00 0.00 55 1008.9
20260505081521 18 235 0.0 3.2 0.00 0.00 0.00 58 1009.0
20260505081007 18 15 0.0 3.2 0.00 0.00 0.00 58 1009.0
20260505080507 17 344 0.0 3.2 0.00 0.00 0.00 61 1009.1
20260505080004 16 291 0.0 3.2 0.00 0.00 0.00 62 1009.1
20260505075503 17 260 0.0 3.2 0.00 0.00 0.00 63 1009.1
20260505075003 17 269 0.0 3.2 0.00 0.00 0.00 64 1009.2
20260505074507 17 303 0.0 3.2 0.00 0.00 0.00 67 1009.2
20260505074003 17 360 0.0 3.2 0.00 0.00 0.00 65 1009.2
20260505073504 17 334 0.0 4.8 0.00 0.00 0.00 65 1009.2
20260505073008 17 315 0.0 4.8 0.00 0.00 0.00 67 1009.3
20260505072502 17 62 0.0 3.2 0.00 0.00 0.00 64 1009.4
20260505072003 17 273 0.0 3.2 0.00 0.00 0.00 65 1009.4
20260505071511 16 231 0.0 3.2 0.00 0.00 0.00 68 1009.4
20260505071006 16 5 0.0 3.2 0.00 0.00 0.00 67 1009.4
20260505070504 16 217 0.0 3.2 0.00 0.00 0.00 67 1009.4
20260505070006 16 237 0.0 3.2 0.00 0.00 0.00 68 1009.3
20260505065502 16 312 0.0 1.6 0.00 0.00 0.00 69 1009.3
20260505065005 16 302 0.0 3.2 0.00 0.00 0.00 70 1009.4
20260505064514 15 329 0.0 4.8 0.00 0.00 0.00 70 1009.4
20260505064005 15 352 0.0 4.8 0.00 0.00 0.00 72 1009.4
20260505063504 15 325 0.0 4.8 0.00 0.00 0.00 70 1009.3
20260505063009 15 309 0.0 4.8 0.00 0.00 0.00 70 1009.3
20260505062505 15 330 0.0 4.8 0.00 0.00 0.00 69 1009.3
20260505062003 15 313 0.0 4.8 0.00 0.00 0.00 70 1009.4
20260505061515 14 338 0.0 4.8 0.00 0.00 0.00 71 1009.3
20260505061006 14 308 0.0 3.2 0.00 0.00 0.00 70 1009.4
20260505060504 14 319 0.0 4.8 0.00 0.00 0.00 71 1009.4
20260505060022 14 303 0.0 4.8 0.00 0.00 0.00 71 1009.4
20260505055507 14 319 0.0 4.8 0.00 0.00 0.00 71 1009.3
20260505055006 14 313 0.0 3.2 0.00 0.00 0.00 70 1009.4
20260505054525 13 301 0.0 3.2 0.00 0.00 0.00 72 1009.4
20260505054006 13 254 0.0 3.2 0.00 0.00 0.00 73 1009.5
20260505053507 13 252 0.0 3.2 0.00 0.00 0.00 73 1009.6
20260505053020 13 217 0.0 3.2 0.00 0.00 0.00 73 1009.6
20260505052507 12 257 0.0 3.2 0.00 0.00 0.00 73 1009.5
20260505052004 12 275 0.0 3.2 0.00 0.00 0.00 74 1009.5
20260505051510 12 263 0.0 1.6 0.00 0.00 0.00 76 1009.6
20260505051004 12 237 0.0 0.0 0.00 0.00 0.00 78 1009.5
20260505050508 11 237 0.0 0.0 0.00 0.00 0.00 78 1009.6
20260505041525 10 335 0.0 0.0 0.00 0.00 0.00 81 1009.5
20260505041004 10 335 0.0 0.0 0.00 0.00 0.00 81 1009.5
20260505040504 10 335 0.0 0.0 0.00 0.00 0.00 81 1009.5
20260505040016 10 335 0.0 1.6 0.00 0.00 0.00 81 1009.6
20260505035508 10 335 0.0 1.6 0.00 0.00 0.00 81 1009.7
20260505035008 10 331 0.0 3.2 0.00 0.00 0.00 81 1009.6
20260505034516 10 331 0.0 3.2 0.00 0.00 0.00 80 1009.6
20260505034008 10 330 0.0 3.2 0.00 0.00 0.00 80 1009.7
20260505033507 10 333 0.0 3.2 0.00 0.00 0.00 80 1009.7
20260505033022 10 314 0.0 3.2 0.00 0.00 0.00 80 1009.6
20260505032507 11 329 0.0 3.2 0.00 0.00 0.00 80 1009.7
20260505032010 11 312 0.0 3.2 0.00 0.00 0.00 80 1009.8
20260505031525 11 315 0.0 3.2 0.00 0.00 0.00 80 1009.8
20260505031008 11 335 0.0 3.2 0.00 0.00 0.00 80 1009.8
20260505030502 11 343 0.0 3.2 0.00 0.00 0.00 79 1009.9
20260505030025 11 327 0.0 3.2 0.00 0.00 0.00 79 1009.9
20260505025505 11 320 0.0 3.2 0.00 0.00 0.00 79 1009.9
20260505025005 11 352 0.0 3.2 0.00 0.00 0.00 79 1009.9
20260505024514 11 329 0.0 3.2 0.00 0.00 0.00 80 1009.9
20260505024008 11 329 0.0 3.2 0.00 0.00 0.00 80 1010.0
20260505023505 11 325 0.0 3.2 0.00 0.00 0.00 79 1010.1
20260505023021 11 321 0.0 3.2 0.00 0.00 0.00 79 1010.1
20260505022505 11 336 0.0 1.6 0.00 0.00 0.00 79 1010.2
20260505022009 11 290 0.0 0.0 0.00 0.00 0.00 78 1010.2
20260505021528 11 290 0.0 0.0 0.00 0.00 0.00 77 1010.2
20260505021006 11 283 0.0 0.0 0.00 0.00 0.00 77 1010.2
20260505020502 11 265 0.0 0.0 0.00 0.00 0.00 77 1010.3
20260505020019 11 265 0.0 0.0 0.00 0.00 0.00 76 1010.3
20260505015507 11 265 0.0 0.0 0.00 0.00 0.00 76 1010.3
20260505015007 11 262 0.0 0.0 0.00 0.00 0.00 76 1010.3
20260505014523 11 262 0.0 0.0 0.00 0.00 0.00 76 1010.3
20260505014003 11 262 0.0 0.0 0.00 0.00 0.00 76 1010.3
20260505013504 12 244 0.0 0.0 0.00 0.00 0.00 75 1010.3
20260505013003 12 244 0.0 0.0 0.00 0.00 0.00 76 1010.4
20260505012504 12 244 0.0 0.0 0.00 0.00 0.00 76 1010.4
20260505012005 12 244 0.0 0.0 0.00 0.00 0.00 75 1010.5
20260505011512 12 244 0.0 0.0 0.00 0.00 0.00 75 1010.6
20260505011006 12 244 0.0 0.0 0.00 0.00 0.00 74 1010.7
20260505010506 12 244 0.0 0.0 0.00 0.00 0.00 74 1010.8
20260505010007 12 244 0.0 0.0 0.00 0.00 0.00 73 1010.8
20260505005504 12 248 0.0 0.0 0.00 0.00 0.00 73 1010.8
20260505005004 12 249 0.0 0.0 0.00 0.00 0.00 73 1010.8
20260505004523 12 249 0.0 0.0 0.00 0.00 0.00 73 1010.8
20260505004003 12 249 0.0 0.0 0.00 0.00 0.00 73 1010.8
20260505003507 13 249 0.0 0.0 0.00 0.00 0.00 73 1010.8
20260505003007 13 249 0.0 0.0 0.00 0.00 0.00 73 1010.8
20260505002504 13 249 0.0 0.0 0.00 0.00 0.00 73 1011.0
20260505002005 13 249 0.0 0.0 0.00 0.00 0.00 72 1011.0
20260505001516 13 249 0.0 0.0 0.00 0.00 0.00 73 1011.1
20260505001005 13 250 0.0 3.2 0.00 0.00 0.00 73 1011.1
20260505000505 13 259 0.0 3.2 0.00 0.00 0.00 73 1011.2
20260505000022 13 222 0.0 3.2 0.00 0.00 0.00 73 1011.2
20260504235505 13 215 0.0 0.0 0.00 0.00 0.00 72 1011.3
20260504235008 13 222 0.0 0.0 0.00 0.00 0.00 72 1011.3
20260504234507 13 234 0.0 0.0 0.00 0.00 0.00 72 1011.3
20260504234003 13 142 0.0 0.0 0.00 0.00 0.00 72 1011.4
20260504233503 13 225 0.0 0.0 0.00 0.00 0.00 72 1011.4
20260504233008 13 229 0.0 0.0 0.00 0.00 0.00 72 1011.4
20260504232504 13 227 0.0 0.0 0.00 0.00 0.00 71 1011.5
20260504232004 13 206 0.0 0.0 0.00 0.00 0.00 71 1011.6
20260504231532 13 231 0.0 1.6 0.00 0.00 0.00 71 1011.6
20260504231007 13 223 0.0 1.6 0.00 0.00 0.00 69 1011.7
20260504230507 14 210 0.0 0.0 0.00 0.00 0.00 69 1011.7
20260504230024 14 236 0.0 0.0 0.00 0.00 0.00 68 1011.7
20260504225513 14 260 0.0 3.2 0.00 0.00 0.00 67 1011.7
20260504225008 15 269 0.0 3.2 0.00 0.00 0.00 67 1011.7
20260504224529 15 269 0.0 0.0 0.00 0.00 0.00 67 1011.7